Tracking 19242 objects as of 18-Sep-2018
HD Live streaming from Space Station
objects crossing your sky now

FENGYUN 1C DEB

Track FENGYUN 1C DEB now!
10-day predictions


NORAD ID: 31912
Int'l Code: 1999-025CLP
Perigee: 770.9 km
Apogee: 1,606.8 km
Inclination: 98.9 °
Period: 109.0 minutes
Semi major axis: 7559 km
RCS: 0.0133 m2 (small)
Launch date: May 10, 1999
Source: People's Republic of China (PRC)
Launch site: Taiyaun Space Center, China (TSC)

Note: This is SATELLITE DEBRIS
aabbcc
Your satellite tracking list
Your tracking list is empty




NASA's NSSDC Master Catalog

Two Line Element Set (TLE):
1 31912U 99025CLP 18254.48583518  .00000949  00000-0  10828-2 0  9996
2 31912  98.8507 349.9199 0552853 224.6601 130.8717 13.20789427541862
Source of the keplerian elements: AFSPC